Location: Marcé
(47.5801°N, 0.3280°W)
Time: 22:52:09
(UTC+01:00)

Transit 2A - Pass Details

Date: 30 November 2021
Orbit: 591 x 967 km, 66.7° (Epoch: 23 January)

Event Time Altitude Azimuth Distance (km) Brightness Sun altitude
Rises 03:36:26 0° 247° (WSW) 3,352 - -47.8°
Reaches altitude 10° 03:39:01 10° 256° (WSW) 2,480 - -47.4°
Maximum altitude 03:44:15 34° 321° (NW) 1,462 - -46.6°
Drops below altitude 10° 03:49:52 10° 24° (NNE) 2,671 - -45.7°
Exits shadow 03:49:58 10° 25° (NNE) 2,703 9.2 -45.7°
Sets 03:52:46 0° 34° (NE) 3,645 10.0 -45.3°
